Tracking 28052 objects as of 21-Sep-2023
HD Live streaming from Space Station
objects crossing your sky now

STARLINK-2394

Track STARLINK-2394 now!
10-day predictions
STARLINK-2394 is classified as:


NORAD ID: 47813
Int'l Code: 2021-018AC
Perigee: 553.0 km
Apogee: 555.8 km
Inclination: 53.1 °
Period: 95.6 minutes
Semi major axis: 6925 km
RCS: Unknown
Launch date: March 11, 2021
Source: United States (US)
Launch site: AIR FORCE EASTERN TEST RANGE (AFETR)
Your satellite tracking list
Your tracking list is empty




NASA's NSSDC Master Catalog

Two Line Element Set (TLE):
1 47813U 21018AC  23263.40572015  .00016123  00000-0  10991-2 0  9990
2 47813  53.0540 317.6416 0001998 133.0660 227.0496 15.06390960141089
Source of the keplerian elements: AFSPC